TRANSPORTER-15 M (66677 NORAD) Tracking and Keplerian Element Data

This shows tracking and keplerian element data for the satellite.

Feedback or suggestion? Click here.




ElementValue
Catalog66677
NameTRANSPORTER-15 M
Epoch Orbit316
Epoch Day353.59923131
Epoch Year2025
RAAN65.2316
Inclination97.4397
Eccentricity0.0003817
Argument of Perigee279.7196
Mean Anonmoly80.3606
Mean Motion15.17398982
Decay Rate9.158E-05
L11 66677U 25276M 25353.59923131 .00009158 00000+0 46126-3 0 9999
L22 66677 97.4397 65.2316 0003817 279.7196 80.3606 15.17398982 3162



Live tracking and technical data element details for TRANSPORTER-15 M (NORAD 66677). TRANSPORTER-15 M can be tracked NOW for your location showing map with azimuth and elevation plus other details from your city location.







IsCatalogInMostPopularTable: catalog: 66677, numindb: 12
Update: records affected: 1



GetName: 66677 TRANSPORTER-15 M

Hit Count: updated at: Tue, 21 Apr 2026 20:22:00 GMT